[[{"header":{"parameterUnit":"m.s-1","parameterCategory":1,"la1":30.2992,"la2":30.254,"lo1":-89.0895,"lo2":-89.0443,"dy":0.0025,"dx":0.0025,"nx":19,"ny":19,"refTime":"2026-05-03T21:00:00:Z","depth":0,"parameterNumber":2,"parameterNumberName":"U-component_of_WINDS"},"data":[0,0,0,-0.6947,-0.6948,-0.6998,-0.6998,-0.7061,-0.7061,0,0,0,0,0,0,0,0,0,0,0,-0.6929,-0.693,-0.6947,-0.6948,-0.6998,-0.6998,-0.7061,-0.7061,0,0,0,0,0,0,0,0,0,0,0,-0.6929,-0.693,-0.693,-0.6948,-0.6997,-0.6998,-0.706,-0.7024,0,0,0,0,0,0,0,0,0,0,-0.6976,-0.6956,-0.693,-0.693,-0.6948,-0.6997,-0.6998,-0.7022,-0.7026,-0.7037,0,-0.7044,0,-0.7054,-0.7065,-0.7065,0,0,0,-0.6951,-0.6953,-0.6969,-0.693,-0.6949,-0.6997,-0.6976,-0.7024,-0.7029,-0.7042,-0.7045,-0.7048,-0.7055,-0.7066,-0.7066,-0.7117,-0.7117,0,0,-0.6948,-0.6937,-0.6966,-0.6971,-0.6961,-0.6974,-0.6977,-0.7027,-0.703,-0.7045,-0.7049,-0.7056,-0.7066,-0.7066,-0.7117,-0.7117,0,0,0,-0.6938,-0.6935,-0.695,-0.6969,-0.6978,-0.6976,-0.6979,-0.7028,-0.7034,-0.705,-0.7056,-0.7066,-0.7067,-0.7117,-0.7117,-0.7112,0,0,0,-0.6937,-0.693,-0.6949,-0.6943,-0.6977,-0.7003,-0.6979,-0.703,-0.7036,-0.7056,-0.7066,-0.7068,-0.7117,-0.7117,-0.7112,-0.7112,0,0,0,-0.6927,-0.6929,-0.6935,-0.6942,-0.6963,-0.7002,-0.7011,-0.7032,-0.704,-0.7065,-0.7068,-0.7117,-0.7117,-0.7112,-0.7112,-0.7123,0,0,0,-0.6915,-0.693,-0.6934,-0.6955,-0.6962,-0.6998,-0.7011,-0.7039,-0.706,-0.7067,-0.7117,-0.7117,-0.7112,-0.7112,-0.7123,-0.7131,-0.7133,0,0,-0.6929,-0.6931,-0.6944,-0.695,-0.6982,-0.6992,-0.7025,-0.7055,-0.7068,-0.71,-0.7102,-0.7112,-0.7112,-0.7123,-0.7147,-0.7148,0,0,0,-0.6945,-0.6954,-0.6965,-0.6984,-0.7007,-0.7027,-0.7053,-0.7064,-0.7093,-0.7081,-0.7119,-0.712,-0.7127,-0.7131,-0.7132,-0.714,-0.7118,-0.7118,-0.7118,-0.6951,-0.6965,-0.6988,-0.7009,-0.7027,-0.7054,-0.7072,-0.7092,-0.7102,-0.7111,-0.7121,-0.7133,-0.7138,-0.7139,-0.7146,-0.7126,-0.7126,-0.7126,-0.7126,-0.6973,-0.6989,-0.7001,-0.7028,-0.7044,-0.7068,-0.7095,-0.7102,-0.7127,-0.7127,-0.7134,-0.7132,-0.714,-0.7148,-0.7126,-0.7126,-0.7126,-0.7126,-0.7126,-0.6978,-0.6989,-0.7001,-0.7031,-0.7053,-0.7075,-0.7098,-0.7113,-0.7127,-0.7133,-0.7147,-0.7147,-0.7149,-0.7138,-0.7139,-0.7139,-0.7139,-0.7139,-0.7139,-0.6979,-0.6994,-0.7011,-0.7037,-0.7051,-0.7073,-0.7101,-0.7117,-0.7138,-0.7147,-0.7147,-0.7158,-0.7137,-0.7132,-0.7139,-0.7139,-0.7139,-0.7139,-0.7139,-0.6997,-0.6996,-0.7022,-0.7037,-0.7069,-0.7091,-0.7109,-0.714,-0.7155,-0.7167,-0.7176,-0.7158,-0.7163,-0.7162,-0.7158,-0.7172,-0.7172,-0.7172,-0.7172,-0.7002,-0.7006,-0.7037,-0.7059,-0.7084,-0.7103,-0.7135,-0.7158,-0.7182,-0.7193,-0.7193,-0.7189,-0.7188,-0.7194,-0.7192,-0.7189,-0.7209,-0.7209,-0.7209,-0.7015,-0.7021,-0.7045,-0.7066,-0.7093,-0.7117,-0.7148,-0.7176,-0.7203,-0.7211,-0.7203,-0.7201,-0.7195,-0.7191,-0.72,-0.7197,-0.7191,0,0]},{"header":{"parameterUnit":"m.s-1","parameterCategory":1,"la1":30.2992,"la2":30.254,"lo1":-89.0895,"lo2":-89.0443,"dy":0.0025,"dx":0.0025,"nx":19,"ny":19,"refTime":"2026-05-03T21:00:00:Z","depth":0,"parameterNumber":3,"parameterNumberName":"V-component_of_WINDS"},"data":[0,0,0,5.987,5.9873,6.0012,6.0013,6.0196,6.0197,0,0,0,0,0,0,0,0,0,0,0,5.9837,5.9839,5.987,5.9874,6.0012,6.0013,6.0195,6.0197,0,0,0,0,0,0,0,0,0,0,0,5.9837,5.9839,5.9841,5.9874,6.0012,6.0013,6.0195,6.0087,0,0,0,0,0,0,0,0,0,0,5.9951,5.993,5.9838,5.9841,5.9875,6.0012,6.0013,6.0082,6.0094,6.0136,0,6.0181,0,6.0192,6.021,6.0211,0,0,0,5.9866,5.992,5.995,5.9841,5.9877,6.0012,5.9948,6.0088,6.0102,6.0153,6.0184,6.019,6.0195,6.0212,6.0213,6.049,6.0492,0,0,5.9859,5.9866,5.9941,5.996,5.9944,5.9943,5.9952,6.0096,6.0129,6.0184,6.0194,6.0198,6.0213,6.0214,6.0489,6.0491,0,0,0,5.9842,5.9861,5.9887,5.9953,5.9977,5.9948,5.9958,6.0123,6.0131,6.0196,6.0201,6.0214,6.0216,6.0487,6.0489,6.0576,0,0,0,5.9837,5.9851,5.9884,5.989,5.9975,6.0053,5.9981,6.0121,6.0137,6.02,6.0214,6.0218,6.0485,6.0488,6.057,6.0614,0,0,0,5.9825,5.9849,5.9873,5.989,5.9951,6.0051,6.0067,6.0124,6.014,6.0211,6.0219,6.0484,6.0488,6.0564,6.0605,6.0687,0,0,0,5.9814,5.9949,5.9875,6.0026,5.995,6.0105,6.0066,6.0181,6.0252,6.0215,6.0485,6.0489,6.0562,6.06,6.0681,6.0755,6.0787,0,0,5.9988,5.997,6.0058,5.9996,6.0166,6.0083,6.0264,6.0322,6.0321,6.0432,6.0439,6.0572,6.0605,6.0685,6.0972,6.0998,0,0,0,6.0115,6.0178,6.0222,6.0292,6.034,6.0383,6.0413,6.0433,6.0527,6.0382,6.0624,6.0644,6.0691,6.0725,6.0747,6.0785,6.0506,6.0506,6.0506,6.037,6.0362,6.0505,6.0513,6.058,6.0608,6.0659,6.0691,6.0664,6.0721,6.0753,6.0928,6.0969,6.0985,6.1025,6.0794,6.0794,6.0794,6.0795,6.062,6.0706,6.0665,6.0789,6.0778,6.088,6.091,6.0886,6.0976,6.0904,6.0945,6.0864,6.1014,6.1048,6.0801,6.08,6.0799,6.0799,6.0798,6.0783,6.0822,6.0846,6.0942,6.1016,6.1018,6.1106,6.1093,6.1081,6.1122,6.1151,6.1149,6.1143,6.1137,6.1138,6.1139,6.1139,6.1139,6.114,6.0942,6.0966,6.1043,6.1103,6.1143,6.1194,6.122,6.1258,6.1296,6.1278,6.1279,6.1242,6.1032,6.0978,6.1149,6.1147,6.1146,6.1145,6.1145,6.1193,6.1133,6.1253,6.1294,6.1359,6.143,6.1413,6.149,6.1519,6.1561,6.1516,6.1365,6.1344,6.1327,6.1281,6.1521,6.1521,6.1521,6.1521,6.1328,6.1317,6.1434,6.1498,6.1559,6.1554,6.1683,6.1702,6.1713,6.1729,6.1693,6.1632,6.1615,6.1605,6.1581,6.1538,6.1838,6.1838,6.1838,6.148,6.1473,6.1588,6.16,6.1649,6.169,6.181,6.188,6.188,6.1851,6.174,6.1726,6.1629,6.1598,6.1565,6.1528,6.1449,0,0]}]]